G4MDP-13 Weather Reports


Display with metric or nautical units.
time (UTC)temp
F
wind
direction
speed
MPH
gust
MPH
rain 1hr
in
rain 24hr
in
rain mn
in
humidity
%
barometer
mb
20260507192347 54 155 5.0 7.0 0.00 0.00 0.00 69 1009.4
20260507192247 54 156 5.0 7.0 0.00 0.00 0.00 69 1009.2
20260507190748 55 153 5.0 6.0 0.00 0.00 0.00 66 1009.3
20260507185347 56 153 5.0 6.0 0.00 0.00 0.00 62 1009.2
20260507185247 57 154 5.0 6.0 0.00 0.00 0.00 62 1009.2
20260507183748 58 157 5.0 6.0 0.00 0.00 0.00 59 1015.5
20260507182347 58 157 4.0 6.0 0.00 0.00 0.00 61 1009.3
20260507182247 58 157 5.0 6.0 0.00 0.00 0.00 60 1009.3
20260507180748 58 159 4.0 7.0 0.00 0.00 0.00 61 1009.2
20260507175347 59 164 5.0 8.0 0.00 0.00 0.00 58 1015.6
20260507175247 59 164 5.0 8.0 0.00 0.00 0.00 58 1015.4
20260507173748 61 159 5.0 7.0 0.00 0.00 0.00 55 1015.4
20260507172347 61 166 4.0 7.0 0.00 0.00 0.00 54 1015.6
20260507172247 61 165 4.0 7.0 0.00 0.00 0.00 54 1015.5
20260507170748 61 163 4.0 6.0 0.00 0.00 0.00 51 1009.3
20260507165347 61 162 4.0 7.0 0.00 0.00 0.00 54 1009.4
20260507165247 60 162 4.0 7.0 0.00 0.00 0.00 54 1009.3
20260507163748 59 161 5.0 8.0 0.00 0.00 0.00 59 1009.4
20260507162347 60 162 4.0 8.0 0.00 0.00 0.00 57 1009.2
20260507162247 60 163 4.0 9.0 0.00 0.00 0.00 56 1009.4
20260507160748 60 162 5.0 9.0 0.00 0.00 0.00 57 1009.5
20260507155347 60 159 5.0 8.0 0.00 0.00 0.00 57 1009.8
20260507155247 60 160 5.0 8.0 0.00 0.00 0.00 57 1009.9
20260507153748 59 162 4.0 8.0 0.00 0.00 0.00 55 1009.8
20260507152347 61 163 5.0 9.0 0.00 0.00 0.00 55 1009.9
20260507152247 61 166 5.0 9.0 0.00 0.00 0.00 54 1009.6
20260507150748 60 163 4.0 9.0 0.00 0.00 0.00 56 1009.5
20260507145347 61 162 5.0 8.0 0.00 0.00 0.00 51 1009.6
20260507145247 61 162 5.0 8.0 0.00 0.00 0.00 51 1009.6
20260507143748 62 165 5.0 11.0 0.00 0.00 0.00 51 1009.6
20260507142347 61 163 5.0 9.0 0.00 0.00 0.00 52 1009.8
20260507142247 61 162 5.0 9.0 0.00 0.00 0.00 52 1009.9
20260507140748 61 155 5.0 8.0 0.00 0.00 0.00 54 1009.9
20260507135347 63 151 5.0 10.0 0.00 0.00 0.00 51 1009.9
20260507135247 62 152 5.0 10.0 0.00 0.00 0.00 53 1009.9
20260507133748 62 161 5.0 10.0 0.00 0.00 0.00 53 1009.9
20260507132347 62 161 5.0 10.0 0.00 0.00 0.00 55 1009.8
20260507132247 62 161 4.0 10.0 0.00 0.00 0.00 55 1009.8
20260507130748 61 165 5.0 10.0 0.00 0.00 0.00 55 1009.9
20260507125347 62 153 4.0 10.0 0.00 0.00 0.00 53 1009.8
20260507125247 62 154 5.0 9.0 0.00 0.00 0.00 53 1010.0
20260507123748 61 163 4.0 10.0 0.00 0.00 0.00 53 1010.1
20260507122347 62 162 5.0 9.0 0.00 0.00 0.00 52 1010.0
20260507122247 62 160 5.0 9.0 0.00 0.00 0.00 52 1010.0
20260507120748 62 159 5.0 9.0 0.00 0.00 0.00 51 1016.2
20260507115347 62 166 5.0 10.0 0.00 0.00 0.00 51 1010.0
20260507115247 62 167 5.0 10.0 0.00 0.00 0.00 50 1010.0
20260507113748 61 159 5.0 10.0 0.00 0.00 0.00 52 1010.3
20260507112347 62 156 5.0 8.0 0.00 0.00 0.00 51 1010.1
20260507112247 62 156 5.0 8.0 0.00 0.00 0.00 52 1010.1
20260507110748 60 160 5.0 8.0 0.00 0.00 0.00 55 1010.1
20260507105947 60 161 5.0 8.0 0.00 0.00 0.00 55 1010.4
20260507105548 59 154 5.0 8.0 0.00 0.00 0.00 58 1010.2
20260507105347 59 153 5.0 8.0 0.00 0.00 0.00 55 1010.4
20260507105337 59 153 5.0 8.0 0.00 0.00 0.00 55 1010.4
20260507105328 59 153 5.0 8.0 0.00 0.00 0.00 55 1010.4
20260507104917 60 155 5.0 8.0 0.00 0.00 0.00 56 1010.4
20260507103517 59 157 5.0 10.0 0.00 0.00 0.00 60 1010.5
20260507103417 59 157 5.0 10.0 0.00 0.00 0.00 60 1010.6
20260507101917 58 157 4.0 8.0 0.00 0.00 0.00 59 1010.5
20260507100517 59 160 5.0 9.0 0.00 0.00 0.00 58 1010.5
20260507100417 59 160 5.0 9.0 0.00 0.00 0.00 58 1010.5
20260507094917 60 157 5.0 9.0 0.00 0.00 0.00 57 1010.4
20260507093517 59 161 6.0 10.0 0.00 0.00 0.00 56 1010.6
20260507093417 59 161 5.0 10.0 0.00 0.00 0.00 56 1010.4
20260507091917 60 157 5.0 8.0 0.00 0.00 0.00 55 1010.3
20260507090517 59 160 5.0 8.0 0.00 0.00 0.00 57 1010.5
20260507090417 59 159 5.0 8.0 0.00 0.00 0.00 57 1010.3
20260507084917 58 158 5.0 8.0 0.00 0.00 0.00 58 1010.6
20260507083517 58 157 5.0 8.0 0.00 0.00 0.00 58 1010.4
20260507083417 58 155 5.0 8.0 0.00 0.00 0.00 58 1010.3
20260507081917 59 159 4.0 8.0 0.00 0.00 0.00 58 1010.3
20260507080517 58 155 5.0 7.0 0.00 0.00 0.00 60 1010.3
20260507080417 58 155 5.0 7.0 0.00 0.00 0.00 60 1010.4
20260507074917 57 148 5.0 7.0 0.00 0.00 0.00 63 1010.2
20260507073517 55 157 5.0 7.0 0.00 0.00 0.00 67 1010.4
20260507073417 56 157 5.0 7.0 0.00 0.00 0.00 68 1010.3
20260507071917 54 156 5.0 8.0 0.00 0.00 0.00 72 1010.1
20260507070517 52 155 4.0 6.0 0.00 0.00 0.00 77 1016.0
20260507070417 52 155 4.0 6.0 0.00 0.00 0.00 78 1010.1
20260507064917 51 156 4.0 6.0 0.00 0.00 0.00 80 1015.8
20260507063517 50 152 4.0 7.0 0.00 0.00 0.00 82 1015.7
20260507063417 50 151 4.0 7.0 0.00 0.00 0.00 82 1015.7
20260507061917 48 153 4.0 5.0 0.00 0.00 0.00 87 1009.9
20260507060517 47 152 4.0 5.0 0.00 0.00 0.00 88 1009.7
20260507060417 47 152 4.0 5.0 0.00 0.00 0.00 88 1009.7
20260507054917 46 151 4.0 6.0 0.00 0.00 0.00 89 1015.6
20260507053517 46 148 4.0 5.0 0.00 0.00 0.00 89 1015.5
20260507053417 46 147 4.0 5.0 0.00 0.00 0.00 89 1015.5
20260507051917 46 151 5.0 6.0 0.00 0.00 0.00 88 1015.5
20260507050517 46 145 4.0 6.0 0.00 0.00 0.00 88 1009.4
20260507050417 46 143 4.0 5.0 0.00 0.00 0.00 88 1009.4
20260507044917 45 141 4.0 6.0 0.00 0.00 0.00 88 1009.6
20260507043517 45 147 4.0 5.0 0.00 0.00 0.00 87 1015.1
20260507043417 45 146 4.0 5.0 0.00 0.00 0.00 87 1015.2
20260507041917 46 139 4.0 5.0 0.00 0.00 0.00 87 1015.3
20260507040517 46 142 4.0 5.0 0.00 0.00 0.00 87 1009.1
20260507040417 46 142 4.0 5.0 0.00 0.00 0.00 87 1009.1
20260507034917 46 131 4.0 6.0 0.00 0.00 0.00 87 1009.3
20260507033517 46 133 4.0 6.0 0.00 0.00 0.00 88 1009.1
20260507033417 46 133 4.0 6.0 0.00 0.00 0.00 88 1009.1
20260507031917 46 139 4.0 5.0 0.00 0.00 0.00 87 1009.2
20260507030517 46 134 4.0 6.0 0.00 0.00 0.00 87 1015.2
20260507030417 46 136 4.0 6.0 0.00 0.00 0.00 87 1015.0
20260507024917 46 136 4.0 6.0 0.00 0.00 0.00 86 1009.0
20260507023517 46 138 4.0 5.0 0.00 0.00 0.00 85 1014.9
20260507023417 46 137 4.0 5.0 0.00 0.00 0.00 85 1015.0
20260507021917 46 146 4.0 6.0 0.00 0.00 0.00 85 1008.9
20260507020517 46 147 4.0 5.0 0.00 0.00 0.00 84 1014.9
20260507020417 46 147 4.0 5.0 0.00 0.00 0.00 84 1014.8
20260507014917 47 147 4.0 5.0 0.00 0.00 0.00 83 1008.7
20260507013517 47 148 4.0 5.0 0.00 0.00 0.00 82 1014.9
20260507013417 47 149 4.0 5.0 0.00 0.00 0.00 82 1014.7
20260507011917 48 149 4.0 5.0 0.00 0.00 0.00 81 1008.7
20260507010517 48 148 4.0 5.0 0.00 0.00 0.00 80 1008.7
20260507010417 48 147 4.0 5.0 0.00 0.00 0.00 80 1008.7
20260507004917 49 148 4.0 5.0 0.00 0.00 0.00 79 1008.9
20260507003517 49 146 4.0 5.0 0.00 0.00 0.00 77 1008.9
20260507003417 49 145 4.0 5.0 0.00 0.00 0.00 77 1008.9
20260507001917 50 146 4.0 5.0 0.00 0.00 0.00 77 1008.7
20260507000517 50 150 4.0 5.0 0.00 0.00 0.00 76 1014.8
20260507000417 50 149 4.0 5.0 0.00 0.00 0.00 75 1015.0
20260506234917 51 149 4.0 5.0 0.00 0.00 0.00 73 1015.0
20260506233517 51 150 4.0 5.0 0.00 0.00 0.00 72 1009.0
20260506233417 51 150 4.0 6.0 0.00 0.00 0.00 72 1014.8
20260506231917 51 152 5.0 6.0 0.00 0.00 0.00 72 1014.7
20260506230517 51 153 4.0 6.0 0.00 0.00 0.00 71 1014.7
20260506230417 51 153 4.0 6.0 0.00 0.00 0.00 71 1014.7
20260506224917 51 154 4.0 5.0 0.00 0.00 0.00 71 1014.7
20260506223517 51 155 4.0 5.0 0.00 0.00 0.00 71 1008.8
20260506223417 51 155 4.0 5.0 0.00 0.00 0.00 71 1008.8
20260506221917 52 154 4.0 5.0 0.00 0.00 0.00 71 1014.7
20260506220517 52 152 4.0 6.0 0.00 0.00 0.00 70 1008.4
20260506220417 52 151 4.0 6.0 0.00 0.00 0.00 70 1008.4
20260506214917 52 153 4.0 6.0 0.00 0.00 0.00 69 1008.5
20260506213517 52 155 4.0 6.0 0.00 0.00 0.00 69 1008.5
20260506213417 52 155 4.0 6.0 0.00 0.00 0.00 69 1008.5
20260506211917 53 154 5.0 6.0 0.00 0.00 0.00 68 1008.4
20260506210517 53 148 4.0 6.0 0.00 0.00 0.00 68 1008.2
20260506210417 53 148 5.0 6.0 0.00 0.00 0.00 68 1008.4
20260506204917 53 152 4.0 5.0 0.00 0.00 0.00 68 1008.3
20260506203517 53 154 4.0 6.0 0.00 0.00 0.00 67 1007.9
20260506203417 53 153 4.0 6.0 0.00 0.00 0.00 67 1008.3
20260506201917 53 154 4.0 6.0 0.00 0.00 0.00 67 1008.0
20260506200517 54 155 4.0 6.0 0.00 0.00 0.00 66 1007.9
20260506200417 54 154 4.0 6.0 0.00 0.00 0.00 66 1007.9
20260506194917 54 150 4.0 6.0 0.00 0.00 0.00 64 1007.7
20260506193517 54 150 4.0 5.0 0.00 0.00 0.00 64 1007.5
20260506193417 54 150 4.0 5.0 0.00 0.00 0.00 64 1007.7